Weather History for Wheeling, WV

Change the Weather History Date:

Saturday, March 2, 2013

  Actual Average Record
Temperature  
Mean Temperature 27 °F 35 °F  
Max Temperature 29 °F 44 °F 58 °F (2004)
Min Temperature 24 °F 27 °F 7 °F (1950)
Degree Days  
Heating Degree Days 38 30  
Month to date heating degree days 74 60  
Since 1 July heating degree days 4086 4227  
Cooling Degree Days 0    
Month to date cooling degree days 0  
Year to date cooling degree days 0  
Moisture  
Dew Point 19 °F    
Average Humidity 76    
Maximum Humidity 88    
Minimum Humidity 63    
Precipitation  
Precipitation T in 0.08 in 0.42 in (1987)
Month to date precipitation T 0.14  
Sea Level Pressure  
Sea Level Pressure 29.95 in    
Wind  
Wind Speed 8 mph (WNW)    
Max Wind Speed 15 mph    
Max Gust Speed 21 mph    
Visibility 7 miles    
Events Snow    
T = Trace of Precipitation, MM = Missing Value Source: NWS Daily Summary

Daily Weather History Graph

Daily Weather History Graph

Search for Another Location

Airport:

Trip Planner

Search our weather history database for the weather conditions in past years. The results will help you decide how hot, cold, wet, or windy it might be!

Date:

Astronomy

Mar. 02, 2013 Rise Set
Actual Time 6:54 AM EST 6:15 PM EST
Civil Twilight 6:26 AM EST 6:42 PM EST
Nautical Twilight 5:55 AM EST 7:14 PM EST
Astronomical Twilight 5:24 AM EST 7:45 PM EST
Moon 11:54 PM EST (3/2) 9:20 AM EST (3/2)
Length of Visible Light 12h 15m
Length of Day
11h 21m
Waning Gibbous, 74% of the Moon is Illuminated
Mar 2
Waning Gibbous
Mar 4
Last Quarter
Mar 11
New
Mar 19
First Quarter
Mar 27
Full

Hourly Weather History & Observations

Time (EST) Temp. Windchill Dew Point Humidity Pressure Visibility Wind Dir Wind Speed Gust Speed Precip Events Conditions
12:53 AM 26.1 °F 17.6 °F 18.0 °F 71% 29.99 in 10.0 mi NNW 8.1 mph - N/A   Overcast
1:53 AM 26.1 °F 21.9 °F 18.0 °F 71% 29.99 in 10.0 mi North 3.5 mph - N/A   Overcast
2:45 AM 24.8 °F 19.1 °F 19.4 °F 80% 29.93 in 10.0 mi West 4.6 mph - N/A   Overcast
2:53 AM 25.0 °F 20.7 °F 19.0 °F 78% 29.98 in 6.0 mi WNW 3.5 mph - 0.00 in Snow Light Snow
3:05 AM 24.8 °F 20.5 °F 19.4 °F 80% 29.93 in 5.0 mi WNW 3.5 mph - 0.00 in Snow Light Snow
3:53 AM 25.0 °F 17.1 °F 19.9 °F 81% 29.97 in 9.0 mi WNW 6.9 mph - 0.00 in   Overcast
4:23 AM 24.8 °F 17.9 °F 19.4 °F 80% 29.91 in 6.0 mi West 5.8 mph - 0.00 in   Haze
4:53 AM 25.0 °F 17.1 °F 21.0 °F 85% 29.97 in 8.0 mi West 6.9 mph - 0.00 in   Overcast
5:19 AM 24.8 °F 17.9 °F 21.2 °F 86% 29.91 in 4.0 mi West 5.8 mph - 0.00 in Snow Light Snow
5:53 AM 25.0 °F 17.1 °F 21.0 °F 85% 29.97 in 4.0 mi WNW 6.9 mph - 0.00 in Snow Light Snow
6:53 AM 25.0 °F 18.1 °F 19.9 °F 81% 29.97 in 9.0 mi WNW 5.8 mph - 0.00 in   Overcast
7:20 AM 24.8 °F 19.1 °F 19.4 °F 80% 29.92 in 5.0 mi NW 4.6 mph - 0.00 in Snow Light Snow
7:46 AM 24.8 °F 19.1 °F 19.4 °F 80% 29.93 in 6.0 mi NNW 4.6 mph - 0.00 in   Haze
7:53 AM 25.0 °F 17.1 °F 19.9 °F 81% 29.98 in 5.0 mi WNW 6.9 mph - 0.00 in   Haze
8:53 AM 25.0 °F 15.5 °F 19.0 °F 78% 29.98 in 4.0 mi NNW 9.2 mph - 0.00 in Snow Light Snow
9:02 AM 24.8 °F 16.1 °F 19.4 °F 80% 29.93 in 4.0 mi NW 8.1 mph - 0.00 in Snow Light Snow
9:53 AM 26.1 °F 17.6 °F 19.0 °F 75% 29.98 in 6.0 mi NW 8.1 mph - 0.00 in   Haze
10:27 AM 26.6 °F 19.1 °F 17.6 °F 69% 29.92 in 10.0 mi Variable 6.9 mph - N/A   Overcast
10:49 AM 26.6 °F 18.2 °F 17.6 °F 69% 29.92 in 9.0 mi WNW 8.1 mph - N/A   Overcast
10:53 AM 27.0 °F 15.6 °F 18.0 °F 69% 29.97 in 10.0 mi NNW 13.8 mph - N/A   Overcast
11:36 AM 26.6 °F 18.2 °F 19.4 °F 74% 29.92 in 1.8 mi NW 8.1 mph - 0.00 in Snow Light Snow
11:40 AM 26.6 °F 18.2 °F 19.4 °F 74% 29.92 in 2.0 mi NW 8.1 mph - 0.00 in Snow Light Snow
11:45 AM 28.4 °F 21.2 °F 19.4 °F 69% 29.92 in 5.0 mi WNW 6.9 mph 16.1 mph 0.00 in Snow Light Snow
11:53 AM 27.0 °F 16.7 °F 18.0 °F 69% 29.97 in 8.0 mi NW 11.5 mph 16.1 mph 0.00 in   Overcast
12:53 PM 28.0 °F 20.0 °F 19.0 °F 69% 29.96 in 8.0 mi WNW 8.1 mph 18.4 mph 0.00 in   Overcast
1:53 PM 28.0 °F 19.3 °F 17.1 °F 63% 29.95 in 10.0 mi WNW 9.2 mph - N/A   Overcast
2:42 PM 28.4 °F 19.1 °F 17.6 °F 64% 29.90 in 7.0 mi WNW 10.4 mph - 0.00 in   Overcast
2:53 PM 28.9 °F 20.4 °F 18.0 °F 64% 29.95 in 9.0 mi NNW 9.2 mph - 0.00 in   Overcast
3:51 PM 28.4 °F 21.2 °F 19.4 °F 69% 29.89 in 10.0 mi WNW 6.9 mph - N/A   Overcast
3:53 PM 28.9 °F 21.1 °F 19.0 °F 67% 29.95 in 10.0 mi NW 8.1 mph - N/A   Overcast
4:07 PM 28.4 °F 19.7 °F 19.4 °F 69% 29.90 in 10.0 mi NW 9.2 mph - N/A   Overcast
4:17 PM 28.4 °F 19.1 °F 19.4 °F 69% 29.89 in 8.0 mi WNW 10.4 mph 18.4 mph N/A   Overcast
4:40 PM 28.4 °F 21.2 °F 19.4 °F 69% 29.90 in 3.0 mi WNW 6.9 mph - 0.00 in Snow Light Snow
4:53 PM 28.0 °F 17.0 °F 19.0 °F 69% 29.95 in 6.0 mi NW 13.8 mph - 0.00 in Snow Light Snow
5:21 PM 28.4 °F 19.7 °F 19.4 °F 69% 29.91 in 9.0 mi NW 9.2 mph - 0.00 in   Overcast
5:53 PM 27.0 °F 18.7 °F 18.0 °F 69% 29.97 in 10.0 mi NW 8.1 mph - 0.00 in   Overcast
6:53 PM 27.0 °F 17.3 °F 18.0 °F 69% 29.99 in 10.0 mi NW 10.4 mph - N/A   Overcast
7:24 PM 26.6 °F 18.2 °F 17.6 °F 69% 29.93 in 10.0 mi NW 8.1 mph - N/A   Overcast
7:53 PM 27.0 °F 19.5 °F 17.1 °F 66% 29.99 in 10.0 mi NW 6.9 mph - N/A   Overcast
8:53 PM 26.1 °F 18.4 °F 19.9 °F 78% 30.00 in 10.0 mi West 6.9 mph - N/A   Overcast
9:53 PM 25.0 °F 16.3 °F 19.9 °F 81% 30.00 in 4.0 mi WNW 8.1 mph - 0.00 in Snow Light Snow
10:53 PM 25.0 °F 19.3 °F 21.0 °F 85% 29.99 in 5.0 mi West 4.6 mph - 0.00 in Snow Light Snow
11:17 PM 24.8 °F 17.9 °F 21.2 °F 86% 29.93 in 5.0 mi West 5.8 mph - 0.00 in Snow Light Snow
11:38 PM 24.8 °F 16.1 °F 21.2 °F 86% 29.93 in 4.0 mi West 8.1 mph - 0.00 in Snow Light Snow
11:45 PM 24.8 °F 16.1 °F 21.2 °F 86% 29.93 in 4.0 mi West 8.1 mph - 0.00 in Snow Light Snow
11:53 PM 25.0 °F 17.1 °F 21.0 °F 85% 29.98 in 3.0 mi West 6.9 mph - 0.00 in Snow Light Snow